| time (UTC) | temp F | wind direction | speed MPH | gust MPH | rain 1hr in | rain 24hr in | rain mn in | humidity % | barometer mb |
| 20260505014226 | 79 | 235 | 2.0 | 3.0 | 0.00 | 0.00 | 0.00 | 46 | 1010.8 |
| 20260505013722 | 79 | 225 | 2.0 | 3.0 | 0.00 | 0.00 | 0.00 | 45 | 1010.9 |
| 20260505013220 | 79 | 255 | 1.0 | 3.0 | 0.00 | 0.00 | 0.00 | 45 | 1011.0 |
| 20260505012718 | 79 | 235 | 1.0 | 3.0 | 0.00 | 0.00 | 0.00 | 44 | 1010.7 |
| 20260505012215 | 79 | 242 | 1.0 | 3.0 | 0.00 | 0.00 | 0.00 | 45 | 1010.7 |
| 20260505011710 | 79 | 225 | 2.0 | 3.0 | 0.00 | 0.00 | 0.00 | 42 | 1010.9 |
| 20260505011208 | 79 | 239 | 1.0 | 5.0 | 0.00 | 0.00 | 0.00 | 45 | 1010.9 |
| 20260505010703 | 79 | 227 | 1.0 | 3.0 | 0.00 | 0.00 | 0.00 | 43 | 1010.9 |
| 20260505010200 | 80 | 244 | 2.0 | 3.0 | 0.00 | 0.00 | 0.00 | 42 | 1011.1 |
| 20260505005656 | 81 | 247 | 3.0 | 3.0 | 0.00 | 0.00 | 0.00 | 40 | 1011.0 |
| 20260505005153 | 81 | 229 | 2.0 | 5.0 | 0.00 | 0.00 | 0.00 | 40 | 1011.1 |
| 20260505004650 | 82 | 221 | 1.0 | 3.0 | 0.00 | 0.00 | 0.00 | 42 | 1010.8 |
| 20260505004147 | 82 | 220 | 2.0 | 3.0 | 0.00 | 0.00 | 0.00 | 41 | 1011.0 |
| 20260505003644 | 83 | 239 | 1.0 | 3.0 | 0.00 | 0.00 | 0.00 | 41 | 1010.9 |
| 20260505003142 | 84 | 236 | 0.0 | 0.0 | 0.00 | 0.00 | 0.00 | 37 | 1011.0 |
| 20260505002638 | 82 | 220 | 1.0 | 2.0 | 0.00 | 0.00 | 0.00 | 40 | 1011.1 |
| 20260505002136 | 83 | 244 | 3.0 | 5.0 | 0.00 | 0.00 | 0.00 | 38 | 1011.2 |
| 20260505001633 | 83 | 219 | 1.0 | 5.0 | 0.00 | 0.00 | 0.00 | 40 | 1011.1 |
| 20260505001130 | 84 | 226 | 2.0 | 3.0 | 0.00 | 0.00 | 0.00 | 36 | 1011.1 |
| 20260505000627 | 83 | 221 | 1.0 | 3.0 | 0.00 | 0.00 | 0.00 | 36 | 1011.1 |
| 20260505000125 | 84 | 219 | 1.0 | 3.0 | 0.00 | 0.00 | 0.00 | 36 | 1011.1 |
| 20260504235621 | 84 | 217 | 1.0 | 3.0 | 0.00 | 0.00 | 0.00 | 36 | 1011.0 |
| 20260504235118 | 84 | 281 | 2.0 | 3.0 | 0.00 | 0.00 | 0.00 | 33 | 1011.0 |
| 20260504234615 | 83 | 214 | 0.0 | 3.0 | 0.00 | 0.00 | 0.00 | 39 | 1011.4 |
| 20260504234112 | 84 | 207 | 3.0 | 3.0 | 0.00 | 0.00 | 0.00 | 31 | 1011.2 |
| 20260504233608 | 83 | 219 | 2.0 | 2.0 | 0.00 | 0.00 | 0.00 | 33 | 1011.1 |
| 20260504233104 | 83 | 201 | 1.0 | 3.0 | 0.00 | 0.00 | 0.00 | 34 | 1011.4 |
| 20260504232602 | 82 | 210 | 1.0 | 3.0 | 0.00 | 0.00 | 0.00 | 33 | 1011.2 |
| 20260504232059 | 83 | 227 | 1.0 | 2.0 | 0.00 | 0.00 | 0.00 | 33 | 1011.1 |
| 20260504231555 | 82 | 215 | 1.0 | 2.0 | 0.00 | 0.00 | 0.00 | 34 | 1011.2 |
| 20260504231051 | 82 | 210 | 0.0 | 5.0 | 0.00 | 0.00 | 0.00 | 35 | 1011.0 |
| 20260504230547 | 83 | 252 | 2.0 | 3.0 | 0.00 | 0.00 | 0.00 | 34 | 1011.0 |
| 20260504230047 | 83 | 218 | 1.0 | 2.0 | 0.00 | 0.00 | 0.00 | 35 | 1011.1 |
| 20260504225544 | 82 | 216 | 0.0 | 3.0 | 0.00 | 0.00 | 0.00 | 35 | 1011.2 |
| 20260504225041 | 83 | 222 | 2.0 | 3.0 | 0.00 | 0.00 | 0.00 | 32 | 1011.5 |
| 20260504224537 | 83 | 222 | 1.0 | 1.0 | 0.00 | 0.00 | 0.00 | 33 | 1011.6 |
| 20260504224035 | 83 | 237 | 1.0 | 3.0 | 0.00 | 0.00 | 0.00 | 33 | 1011.6 |
| 20260504223531 | 83 | 240 | 2.0 | 3.0 | 0.00 | 0.00 | 0.00 | 33 | 1011.6 |
| 20260504223027 | 82 | 217 | 0.0 | 5.0 | 0.00 | 0.00 | 0.00 | 35 | 1011.8 |
| 20260504222524 | 83 | 219 | 1.0 | 3.0 | 0.00 | 0.00 | 0.00 | 34 | 1011.6 |
| 20260504222021 | 82 | 224 | 2.0 | 3.0 | 0.00 | 0.00 | 0.00 | 35 | 1011.7 |
| 20260504221518 | 82 | 216 | 0.0 | 3.0 | 0.00 | 0.00 | 0.00 | 37 | 1011.8 |
| 20260504221015 | 82 | 212 | 3.0 | 5.0 | 0.00 | 0.00 | 0.00 | 35 | 1011.7 |
| 20260504220512 | 82 | 213 | 1.0 | 2.0 | 0.00 | 0.00 | 0.00 | 35 | 1011.8 |
| 20260504220009 | 82 | 222 | 0.0 | 5.0 | 0.00 | 0.00 | 0.00 | 37 | 1011.9 |
| 20260504215505 | 81 | 219 | 2.0 | 3.0 | 0.00 | 0.00 | 0.00 | 36 | 1011.9 |
| 20260504215003 | 81 | 238 | 4.0 | 5.0 | 0.00 | 0.00 | 0.00 | 35 | 1011.9 |
| 20260504214458 | 82 | 209 | 2.0 | 3.0 | 0.00 | 0.00 | 0.00 | 38 | 1011.8 |
| 20260504213955 | 82 | 215 | 1.0 | 3.0 | 0.00 | 0.00 | 0.00 | 39 | 1012.1 |
| 20260504213451 | 82 | 213 | 0.0 | 3.0 | 0.00 | 0.00 | 0.00 | 40 | 1012.1 |
| 20260504212949 | 81 | 254 | 1.0 | 2.0 | 0.00 | 0.00 | 0.00 | 41 | 1012.0 |
| 20260504212444 | 81 | 213 | 1.0 | 3.0 | 0.00 | 0.00 | 0.00 | 40 | 1012.1 |
| 20260504211942 | 81 | 217 | 1.0 | 3.0 | 0.00 | 0.00 | 0.00 | 37 | 1012.0 |
| 20260504211438 | 80 | 228 | 2.0 | 3.0 | 0.00 | 0.00 | 0.00 | 39 | 1012.1 |
| 20260504210936 | 79 | 219 | 1.0 | 5.0 | 0.00 | 0.00 | 0.00 | 41 | 1012.0 |
| 20260504210433 | 80 | 228 | 1.0 | 3.0 | 0.00 | 0.00 | 0.00 | 40 | 1012.0 |
| 20260504205930 | 79 | 224 | 1.0 | 2.0 | 0.00 | 0.00 | 0.00 | 40 | 1011.9 |
| 20260504205427 | 79 | 218 | 3.0 | 3.0 | 0.00 | 0.00 | 0.00 | 40 | 1012.1 |
| 20260504204926 | 79 | 225 | 2.0 | 3.0 | 0.00 | 0.00 | 0.00 | 40 | 1011.9 |
| 20260504204423 | 78 | 238 | 1.0 | 3.0 | 0.00 | 0.00 | 0.00 | 44 | 1012.2 |
| 20260504203923 | 78 | 276 | 2.0 | 5.0 | 0.00 | 0.00 | 0.00 | 42 | 1012.1 |
| 20260504203420 | 78 | 217 | 3.0 | 5.0 | 0.00 | 0.00 | 0.00 | 40 | 1012.2 |
| 20260504202915 | 78 | 241 | 1.0 | 5.0 | 0.00 | 0.00 | 0.00 | 42 | 1012.2 |
| 20260504202412 | 78 | 218 | 1.0 | 3.0 | 0.00 | 0.00 | 0.00 | 43 | 1012.3 |
| 20260504201909 | 77 | 213 | 2.0 | 5.0 | 0.00 | 0.00 | 0.00 | 46 | 1012.1 |
| 20260504201407 | 76 | 265 | 3.0 | 5.0 | 0.00 | 0.00 | 0.00 | 45 | 1012.1 |
| 20260504200904 | 76 | 274 | 3.0 | 5.0 | 0.00 | 0.00 | 0.00 | 43 | 1012.0 |
| 20260504200400 | 77 | 255 | 2.0 | 3.0 | 0.00 | 0.00 | 0.00 | 44 | 1011.9 |
| 20260504195857 | 77 | 219 | 1.0 | 2.0 | 0.00 | 0.00 | 0.00 | 45 | 1012.0 |
| 20260504195352 | 77 | 233 | 1.0 | 3.0 | 0.00 | 0.00 | 0.00 | 43 | 1012.0 |
| 20260504194849 | 75 | 221 | 1.0 | 3.0 | 0.00 | 0.00 | 0.00 | 43 | 1012.0 |
| 20260504194345 | 76 | 221 | 1.0 | 2.0 | 0.00 | 0.00 | 0.00 | 47 | 1012.3 |
| 20260504193841 | 75 | 272 | 2.0 | 3.0 | 0.00 | 0.00 | 0.00 | 45 | 1012.2 |
| 20260504193339 | 75 | 221 | 0.0 | 3.0 | 0.00 | 0.00 | 0.00 | 48 | 1012.1 |
| 20260504192838 | 75 | 215 | 3.0 | 3.0 | 0.00 | 0.00 | 0.00 | 46 | 1012.2 |
| 20260504192335 | 75 | 220 | 1.0 | 3.0 | 0.00 | 0.00 | 0.00 | 48 | 1012.3 |
| 20260504191833 | 74 | 231 | 2.0 | 3.0 | 0.00 | 0.00 | 0.00 | 50 | 1012.3 |
| 20260504191331 | 74 | 222 | 2.0 | 5.0 | 0.00 | 0.00 | 0.00 | 48 | 1012.5 |
| 20260504190826 | 73 | 246 | 2.0 | 3.0 | 0.00 | 0.00 | 0.00 | 49 | 1012.3 |
| 20260504190322 | 73 | 216 | 1.0 | 3.0 | 0.00 | 0.00 | 0.00 | 53 | 1012.1 |
| 20260504185819 | 73 | 223 | 1.0 | 3.0 | 0.00 | 0.00 | 0.00 | 53 | 1012.5 |
| 20260504185316 | 73 | 240 | 3.0 | 6.0 | 0.00 | 0.00 | 0.00 | 52 | 1012.6 |
| 20260504184812 | 73 | 236 | 2.0 | 3.0 | 0.00 | 0.00 | 0.00 | 52 | 1012.3 |
| 20260504184308 | 73 | 243 | 3.0 | 5.0 | 0.00 | 0.00 | 0.00 | 51 | 1012.3 |
| 20260504183804 | 73 | 228 | 1.0 | 5.0 | 0.00 | 0.00 | 0.00 | 53 | 1012.2 |
| 20260504183301 | 72 | 229 | 2.0 | 5.0 | 0.00 | 0.00 | 0.00 | 54 | 1012.3 |
| 20260504182759 | 72 | 221 | 1.0 | 2.0 | 0.00 | 0.00 | 0.00 | 54 | 1012.2 |
| 20260504182256 | 72 | 219 | 1.0 | 2.0 | 0.00 | 0.00 | 0.00 | 56 | 1012.8 |
| 20260504181753 | 71 | 230 | 1.0 | 3.0 | 0.00 | 0.00 | 0.00 | 56 | 1012.1 |
| 20260504181250 | 71 | 242 | 3.0 | 5.0 | 0.00 | 0.00 | 0.00 | 57 | 1012.7 |
| 20260504180750 | 71 | 224 | 1.0 | 3.0 | 0.00 | 0.00 | 0.00 | 57 | 1012.6 |
| 20260504180248 | 70 | 233 | 2.0 | 2.0 | 0.00 | 0.00 | 0.00 | 56 | 1012.6 |
| 20260504175745 | 70 | 220 | 1.0 | 3.0 | 0.00 | 0.00 | 0.00 | 59 | 1012.6 |
| 20260504175242 | 69 | 220 | 2.0 | 2.0 | 0.00 | 0.00 | 0.00 | 58 | 1012.7 |
| 20260504174740 | 69 | 230 | 2.0 | 3.0 | 0.00 | 0.00 | 0.00 | 58 | 1012.5 |
| 20260504174237 | 69 | 226 | 0.0 | 2.0 | 0.00 | 0.00 | 0.00 | 60 | 1012.6 |
| 20260504173733 | 69 | 223 | 0.0 | 2.0 | 0.00 | 0.00 | 0.00 | 62 | 1012.6 |
| 20260504173231 | 68 | 233 | 1.0 | 2.0 | 0.00 | 0.00 | 0.00 | 62 | 1012.6 |
| 20260504172727 | 68 | 234 | 1.0 | 2.0 | 0.00 | 0.00 | 0.00 | 63 | 1012.5 |
| 20260504172224 | 67 | 223 | 1.0 | 3.0 | 0.00 | 0.00 | 0.00 | 63 | 1012.2 |
| 20260504171720 | 67 | 226 | 1.0 | 2.0 | 0.00 | 0.00 | 0.00 | 63 | 1012.3 |
| 20260504171217 | 67 | 233 | 1.0 | 3.0 | 0.00 | 0.00 | 0.00 | 64 | 1012.6 |
| 20260504170714 | 66 | 233 | 2.0 | 2.0 | 0.00 | 0.00 | 0.00 | 63 | 1012.3 |
| 20260504170212 | 66 | 227 | 0.0 | 2.0 | 0.00 | 0.00 | 0.00 | 66 | 1012.3 |
| 20260504160130 | 62 | 224 | 1.0 | 2.0 | 0.00 | 0.00 | 0.00 | 73 | 1012.2 |
| 20260504151057 | 57 | 220 | 1.0 | 1.0 | 0.00 | 0.00 | 0.00 | 82 | 1012.0 |
| 20260504150555 | 57 | 213 | 0.0 | 1.0 | 0.00 | 0.00 | 0.00 | 83 | 1011.8 |
| 20260504141021 | 53 | 203 | 0.0 | 0.0 | 0.00 | 0.00 | 0.00 | 90 | 1011.5 |
| 20260504140517 | 52 | 203 | 0.0 | 0.0 | 0.00 | 0.00 | 0.00 | 90 | 1011.6 |
| 20260504130442 | 51 | 203 | 0.0 | 0.0 | 0.00 | 0.00 | 0.00 | 89 | 1011.0 |
| 20260504110328 | 52 | 202 | 0.0 | 0.0 | 0.00 | 0.00 | 0.00 | 85 | 1011.0 |
| 20260504100246 | 54 | 202 | 0.0 | 0.0 | 0.00 | 0.00 | 0.00 | 82 | 1011.1 |
| 20260504081639 | 58 | 202 | 0.0 | 0.0 | 0.00 | 0.00 | 0.00 | 72 | 1010.7 |
| 20260504081135 | 58 | 202 | 0.0 | 0.0 | 0.00 | 0.00 | 0.00 | 72 | 1010.9 |
| 20260504080632 | 58 | 202 | 0.0 | 0.0 | 0.00 | 0.00 | 0.00 | 72 | 1011.1 |
| 20260504080128 | 58 | 202 | 0.0 | 0.0 | 0.00 | 0.00 | 0.00 | 73 | 1011.1 |
| 20260504050445 | 65 | 204 | 0.0 | 0.0 | 0.00 | 0.00 | 0.00 | 56 | 1010.8 |
| 20260504045942 | 65 | 204 | 0.0 | 0.0 | 0.00 | 0.00 | 0.00 | 56 | 1010.9 |
| 20260504045438 | 65 | 204 | 0.0 | 0.0 | 0.00 | 0.00 | 0.00 | 57 | 1011.0 |
| 20260504044934 | 65 | 204 | 0.0 | 0.0 | 0.00 | 0.00 | 0.00 | 59 | 1011.0 |
| 20260504044432 | 65 | 204 | 0.0 | 0.0 | 0.00 | 0.00 | 0.00 | 61 | 1010.9 |
| 20260504043929 | 65 | 204 | 0.0 | 0.0 | 0.00 | 0.00 | 0.00 | 64 | 1011.1 |
| 20260504043426 | 65 | 204 | 0.0 | 0.0 | 0.00 | 0.00 | 0.00 | 65 | 1011.0 |
| 20260504042923 | 65 | 204 | 0.0 | 0.0 | 0.00 | 0.00 | 0.00 | 66 | 1011.0 |
| 20260504042420 | 65 | 204 | 0.0 | 0.0 | 0.00 | 0.00 | 0.00 | 68 | 1010.8 |
| 20260504041916 | 65 | 204 | 0.0 | 0.0 | 0.00 | 0.00 | 0.00 | 67 | 1011.0 |
| 20260504041412 | 65 | 195 | 0.0 | 0.0 | 0.00 | 0.00 | 0.00 | 67 | 1010.8 |
| 20260504040908 | 66 | 195 | 0.0 | 0.0 | 0.00 | 0.00 | 0.00 | 66 | 1010.9 |
| 20260504040407 | 66 | 195 | 0.0 | 0.0 | 0.00 | 0.00 | 0.00 | 64 | 1010.8 |
| 20260504035902 | 67 | 195 | 0.0 | 0.0 | 0.00 | 0.00 | 0.00 | 63 | 1010.8 |
| 20260504035400 | 67 | 195 | 0.0 | 0.0 | 0.00 | 0.00 | 0.00 | 61 | 1010.9 |
| 20260504034856 | 68 | 195 | 0.0 | 0.0 | 0.00 | 0.00 | 0.00 | 60 | 1010.9 |
| 20260504034354 | 69 | 195 | 0.0 | 0.0 | 0.00 | 0.00 | 0.00 | 59 | 1011.0 |
| 20260504033850 | 69 | 195 | 0.0 | 0.0 | 0.00 | 0.00 | 0.00 | 58 | 1010.6 |
| 20260504033349 | 70 | 194 | 0.0 | 0.0 | 0.00 | 0.00 | 0.00 | 55 | 1010.7 |
| 20260504032845 | 70 | 223 | 0.0 | 1.0 | 0.00 | 0.00 | 0.00 | 56 | 1010.6 |
| 20260504032342 | 71 | 201 | 0.0 | 0.0 | 0.00 | 0.00 | 0.00 | 55 | 1010.7 |
| 20260504031839 | 72 | 201 | 0.0 | 0.0 | 0.00 | 0.00 | 0.00 | 53 | 1010.7 |
| 20260504031336 | 73 | 194 | 0.0 | 2.0 | 0.00 | 0.00 | 0.00 | 51 | 1010.8 |
| 20260504030832 | 74 | 207 | 0.0 | 1.0 | 0.00 | 0.00 | 0.00 | 51 | 1010.5 |
| 20260504030330 | 75 | 215 | 0.0 | 0.0 | 0.00 | 0.00 | 0.00 | 49 | 1010.8 |
| 20260504025826 | 75 | 216 | 1.0 | 2.0 | 0.00 | 0.00 | 0.00 | 48 | 1010.6 |
| 20260504025323 | 76 | 193 | 1.0 | 2.0 | 0.00 | 0.00 | 0.00 | 48 | 1010.8 |
| 20260504024819 | 76 | 197 | 0.0 | 1.0 | 0.00 | 0.00 | 0.00 | 47 | 1010.8 |
| 20260504024316 | 77 | 213 | 0.0 | 1.0 | 0.00 | 0.00 | 0.00 | 45 | 1010.9 |
| 20260504023813 | 77 | 218 | 1.0 | 2.0 | 0.00 | 0.00 | 0.00 | 44 | 1010.7 |
| 20260504023309 | 78 | 209 | 0.0 | 0.0 | 0.00 | 0.00 | 0.00 | 43 | 1010.7 |
| 20260504022805 | 79 | 192 | 0.0 | 2.0 | 0.00 | 0.00 | 0.00 | 43 | 1010.6 |
| 20260504022304 | 79 | 215 | 0.0 | 2.0 | 0.00 | 0.00 | 0.00 | 43 | 1010.7 |
| 20260504021758 | 80 | 199 | 0.0 | 1.0 | 0.00 | 0.00 | 0.00 | 45 | 1010.8 |
| 20260504021256 | 79 | 200 | 1.0 | 2.0 | 0.00 | 0.00 | 0.00 | 43 | 1010.7 |
| 20260504020753 | 80 | 198 | 1.0 | 2.0 | 0.00 | 0.00 | 0.00 | 42 | 1010.9 |
| 20260504020249 | 80 | 179 | 1.0 | 2.0 | 0.00 | 0.00 | 0.00 | 41 | 1010.7 |
| 20260504015745 | 80 | 191 | 1.0 | 2.0 | 0.00 | 0.00 | 0.00 | 40 | 1010.8 |
| 20260504015242 | 80 | 197 | 0.0 | 3.0 | 0.00 | 0.00 | 0.00 | 41 | 1010.9 |
| 20260504014738 | 81 | 217 | 0.0 | 2.0 | 0.00 | 0.00 | 0.00 | 41 | 1010.8 |